TimeEST,TemperatureF,Dew PointF,Humidity,Sea Level PressureIn,VisibilityMPH,Wind Direction,Wind SpeedMPH,Gust SpeedMPH,PrecipitationIn,Events,Conditions,WindDirDegrees,DateUTC
12:54 AM,34.0,33.1,96,30.43,0.2,Calm,Calm,-,N/A,Fog,Fog,0,2012-12-02 05:54:00
1:54 AM,34.0,33.1,96,30.41,0.2,Calm,Calm,-,N/A,Fog,Fog,0,2012-12-02 06:54:00
2:54 AM,34.0,33.1,96,30.41,0.2,Calm,Calm,-,N/A,Fog,Fog,0,2012-12-02 07:54:00
3:54 AM,35.1,34.0,96,30.40,0.2,Calm,Calm,-,N/A,Fog,Fog,0,2012-12-02 08:54:00
4:54 AM,35.1,33.1,92,30.39,0.2,Calm,Calm,-,N/A,Fog,Fog,0,2012-12-02 09:54:00
5:54 AM,35.1,34.0,96,30.37,0.5,Calm,Calm,-,N/A,Fog,Fog,0,2012-12-02 10:54:00
6:54 AM,35.1,34.0,96,30.37,0.5,Calm,Calm,-,N/A,Fog,Fog,0,2012-12-02 11:54:00
8:54 AM,37.0,36.0,96,30.34,0.2,Calm,Calm,-,N/A,Fog,Fog,0,2012-12-02 13:54:00
9:36 AM,37.4,37.4,100,30.32,1.2,Calm,Calm,-,N/A,,Overcast,0,2012-12-02 14:36:00
9:45 AM,39.2,37.4,93,30.32,2.5,Calm,Calm,-,N/A,,Overcast,0,2012-12-02 14:45:00
9:54 AM,39.0,37.9,96,30.33,3.0,South,3.5,-,N/A,,Overcast,180,2012-12-02 14:54:00
10:18 AM,39.2,37.4,93,30.31,5.0,SW,3.5,-,N/A,,Overcast,230,2012-12-02 15:18:00
10:33 AM,39.2,37.4,93,30.30,7.0,SSW,4.6,-,N/A,,Overcast,200,2012-12-02 15:33:00
10:54 AM,39.9,37.9,93,30.30,6.0,SW,6.9,-,N/A,,Overcast,220,2012-12-02 15:54:00
11:54 AM,41.0,39.0,93,30.25,8.0,SSW,4.6,-,N/A,,Overcast,210,2012-12-02 16:54:00
12:54 PM,44.1,39.9,85,30.21,10.0,SW,4.6,-,N/A,,Mostly Cloudy,220,2012-12-02 17:54:00
1:18 PM,44.6,39.2,81,30.18,9.0,SW,4.6,-,N/A,,Scattered Clouds,220,2012-12-02 18:18:00
1:54 PM,48.0,41.0,77,30.16,10.0,SSW,6.9,-,N/A,,Clear,210,2012-12-02 18:54:00
2:54 PM,48.0,41.0,77,30.14,10.0,SSW,11.5,-,N/A,,Clear,200,2012-12-02 19:54:00
3:54 PM,46.0,39.9,79,30.14,9.0,SW,9.2,-,N/A,,Clear,230,2012-12-02 20:54:00
4:54 PM,45.0,39.9,82,30.12,8.0,SW,8.1,-,N/A,,Clear,220,2012-12-02 21:54:00
5:54 PM,44.1,39.9,85,30.11,7.0,SW,6.9,-,0.00,Rain,Light Rain,230,2012-12-02 22:54:00
6:54 PM,44.1,39.9,85,30.12,6.0,West,5.8,-,0.00,Rain,Light Rain,280,2012-12-02 23:54:00
7:43 PM,44.6,42.8,93,30.11,3.0,Calm,Calm,-,0.05,Rain,Rain,0,2012-12-03 00:43:00
7:51 PM,44.6,42.8,93,30.11,2.5,SSE,4.6,-,0.08,Rain,Rain,150,2012-12-03 00:51:00
7:54 PM,44.1,42.1,93,30.12,2.5,SSE,4.6,-,0.09,Rain,Rain,150,2012-12-03 00:54:00
8:06 PM,44.6,42.8,93,30.10,3.0,South,5.8,-,0.02,Rain,Light Rain,170,2012-12-03 01:06:00
8:20 PM,44.6,42.8,93,30.10,2.5,SSW,4.6,-,0.03,Rain,Light Rain,200,2012-12-03 01:20:00
8:25 PM,44.6,42.8,93,30.10,2.0,South,3.5,-,0.05,Rain,Rain,190,2012-12-03 01:25:00
8:35 PM,44.6,42.8,93,30.11,1.8,Calm,Calm,-,0.07,Rain,Rain,0,2012-12-03 01:35:00
8:39 PM,44.6,42.8,93,30.11,2.0,Calm,Calm,-,0.07,Rain,Rain,0,2012-12-03 01:39:00
8:54 PM,45.0,43.0,93,30.12,3.0,Variable,4.6,-,0.08,Rain,Light Rain,0,2012-12-03 01:54:00
9:24 PM,46.4,42.8,87,30.10,4.0,SW,6.9,-,0.00,,Overcast,230,2012-12-03 02:24:00
9:54 PM,46.0,43.0,89,30.11,4.0,SW,5.8,-,0.00,,Overcast,230,2012-12-03 02:54:00
10:54 PM,46.0,43.0,89,30.10,4.0,SW,6.9,-,N/A,,Overcast,220,2012-12-03 03:54:00
11:54 PM,45.0,42.1,90,30.09,4.0,SW,6.9,-,N/A,,Mostly Cloudy,220,2012-12-03 04:54:00